Location: Paderno d�Adda
(45.6667°N, 9.4333°E)
Time: 17:01:15
(UTC+00:00)

ARGOS - Pass Details

Date: 19 September 2020
Orbit: 821 x 834 km, 98.4° (Epoch: 20 October)

Event Time Altitude Azimuth Distance (km) Brightness Sun altitude
Rises 18:54:43 0° 173° (S) 3,339 6.1 -16.2°
Reaches altitude 10° 18:57:04 10° 176° (S) 2,412 5.3 -16.6°
Maximum altitude 19:02:22 64° 258° (WSW) 907 3.5 -17.5°
Drops below altitude 10° 19:07:43 10° 341° (NNW) 2,435 6.1 -18.3°
Sets 19:10:07 0° 344° (NNW) 3,374 6.9 -18.7°
